Theta_e
348 348 349 348 346 345 343 343 343 343 343 340 337 338 341 343 345 344 345 344 342 341 340 340 341 342 341 340 340 341 342 342 341 339 341 341 340 339 336 334 333 333 332 334 335 336 336 335 335 333 330 329 332 331 330 330 330 331 331 331 331 329 330 332 332 332 332 332 331 331 332 332 331 332 332 332 332 333 333 333 334 334 334 333 334
347 347 347 348 346 346 344 344 344 344 343 341 339 338 340 341 344 344 344 343 342 341 340 340 338 341 340 340 340 341 342 340 340 340 341 342 341 339 336 335 333 334 337 336 336 336 335 332 329 330 332 331 332 331 328 330 330 330 330 329 329 330 329 329 330 330 329 330 329 330 330 331 331 332 332 332 332 333 333 333 333 333 333 333 333
348 349 347 349 346 347 345 345 344 343 343 341 341 339 341 341 344 341 343 342 342 341 340 340 339 337 340 339 341 342 341 342 341 341 342 342 341 340 339 336 337 337 337 339 336 334 332 333 333 333 332 332 332 329 331 330 329 327 328 328 327 327 327 327 328 327 327 328 329 328 329 329 329 331 331 331 332 332 332 332 332 332 332 332 332
346 343 344 342 344 344 345 346 344 344 343 342 341 341 341 342 344 344 345 345 343 343 343 340 340 338 339 339 340 341 341 342 341 342 342 342 340 341 339 337 337 337 337 338 335 333 333 333 333 332 332 332 331 330 330 330 328 328 328 328 328 328 328 328 327 327 328 328 328 328 328 328 328 329 330 330 331 330 331 331 331 331 330 331 331
341 343 343 342 345 343 344 345 346 346 344 344 343 343 341 341 343 343 343 344 343 343 341 343 342 341 341 340 342 340 342 341 342 342 341 341 341 342 341 339 338 337 337 335 337 336 333 332 332 332 332 332 329 328 329 328 329 328 328 327 327 328 328 328 327 327 327 327 327 326 326 327 327 328 329 329 329 329 330 330 330 329 329 330 330
341 342 341 347 344 344 344 344 344 345 344 344 342 342 339 339 339 340 340 341 341 343 341 341 341 342 342 343 342 341 340 339 340 340 340 341 341 341 341 340 338 338 335 336 336 335 334 333 331 331 332 331 331 331 331 330 330 329 328 327 327 326 325 327 326 326 326 327 327 327 327 327 326 327 327 328 328 329 329 328 328 328 329 329 329
341 342 341 341 341 346 346 344 344 343 342 342 343 343 342 339 337 337 341 341 341 342 341 342 342 340 342 343 341 342 342 341 342 341 339 341 342 341 342 339 339 340 339 337 336 336 336 333 332 332 331 331 330 330 330 329 328 328 328 326 326 326 326 326 326 326 326 326 326 325 326 326 326 326 325 327 328 327 328 329 328 328 328 328 328
341 341 341 341 340 340 342 339 343 344 344 344 344 341 342 341 340 339 340 339 340 341 342 342 342 341 343 342 341 340 341 341 341 341 341 341 341 341 342 341 341 340 337 338 340 337 335 333 332 331 331 328 328 330 330 328 329 329 328 326 325 326 324 327 326 326 325 326 326 326 327 327 327 326 326 326 327 327 328 328 327 327 327 328 328
340 342 341 340 342 340 339 341 342 344 344 345 342 342 343 342 341 342 342 338 337 339 341 342 342 342 342 342 342 342 341 342 342 341 341 341 341 341 341 340 340 335 340 339 339 337 335 333 332 331 329 329 329 329 328 328 330 329 328 327 327 327 327 328 328 327 327 327 327 326 326 325 325 326 326 326 325 327 327 327 326 327 327 328 328
338 339 340 343 344 342 340 340 341 340 345 345 344 343 343 343 340 340 337 338 336 338 341 342 341 340 340 340 341 341 340 341 342 340 340 339 338 338 339 340 340 340 340 340 339 338 336 336 335 334 334 333 330 329 328 328 329 328 330 328 327 328 328 328 326 326 326 326 326 326 327 327 327 326 327 327 326 326 326 326 327 327 327 328 328
339 340 342 343 342 342 337 341 343 343 342 342 343 342 340 340 340 340 341 340 337 340 341 340 339 339 338 339 340 339 339 339 341 340 339 339 338 338 339 338 339 338 339 338 338 339 339 337 336 336 336 336 335 334 330 329 329 330 330 328 329 330 328 326 327 326 326 326 326 326 326 326 326 326 327 327 327 327 327 327 327 328 327 328 328
340 341 340 343 341 338 338 341 343 339 336 336 340 339 339 340 340 340 340 341 340 340 341 339 338 338 337 338 338 339 337 337 339 339 338 338 337 338 338 339 338 337 337 337 339 340 338 340 338 336 337 336 335 335 335 336 335 330 330 328 330 330 328 327 328 326 325 326 326 326 327 327 328 328 328 328 328 329 329 329 328 328 328 328 328
340 341 342 341 340 337 336 340 339 337 336 334 339 341 343 341 339 341 340 338 337 339 339 339 335 333 335 333 335 337 337 337 336 337 337 337 337 336 337 337 338 337 338 338 338 339 338 337 337 336 335 341 336 333 333 334 334 335 331 329 331 330 327 328 328 327 326 327 327 327 327 328 328 329 329 330 330 330 329 329 328 328 328 328 329
341 341 341 341 340 341 343 341 339 339 337 339 341 341 343 341 338 336 339 337 334 338 336 336 329 328 324 327 327 333 335 334 334 336 338 339 337 336 338 336 337 336 337 337 336 337 337 338 336 337 334 335 337 337 337 337 335 333 334 334 331 331 329 329 328 328 327 327 327 328 327 328 329 329 329 329 329 329 328 329 329 329 329 329 329
341 340 340 340 340 340 340 341 340 338 339 339 340 339 340 339 341 338 335 335 335 339 340 335 332 333 332 325 322 321 327 330 333 335 336 336 337 338 335 336 336 337 337 337 335 336 337 336 337 337 337 340 340 339 335 332 335 331 331 334 334 331 331 330 329 329 328 327 327 328 328 328 328 328 329 329 329 329 329 328 328 328 329 329 329
340 340 339 339 339 338 340 339 339 338 338 336 337 336 338 338 339 339 338 331 331 331 338 337 334 332 323 324 323 322 319 320 325 331 335 334 335 335 335 333 336 335 336 333 334 337 336 335 339 338 336 337 336 337 336 339 333 331 331 331 333 334 331 331 330 329 328 327 328 328 328 328 328 328 329 329 329 329 329 329 329 329 330 330 330
341 340 337 337 339 338 337 337 339 338 338 337 336 337 338 338 337 337 333 333 331 330 332 335 337 338 331 322 321 319 320 323 326 325 331 331 332 333 333 333 334 335 336 336 334 338 339 337 338 338 338 337 337 337 337 338 334 336 334 332 331 333 331 332 331 331 330 329 329 329 329 328 330 330 330 330 330 329 329 330 330 330 330 330 330
340 339 337 338 338 338 337 335 337 337 337 338 337 338 336 337 338 336 333 333 333 333 332 337 339 337 334 331 331 324 325 326 324 319 329 333 336 334 335 336 336 336 335 332 335 333 334 333 335 334 336 337 338 339 338 336 337 336 337 335 329 328 326 331 331 331 333 332 330 330 329 330 331 330 330 330 330 330 330 330 329 329 329 329 328
339 338 338 338 338 338 336 337 337 338 337 338 339 339 336 337 337 334 336 334 335 332 334 334 335 336 336 337 337 334 334 328 324 324 320 328 330 331 331 336 335 333 333 332 333 333 334 335 336 337 338 339 339 339 338 337 333 335 331 329 326 325 324 325 331 333 332 333 332 331 331 331 331 330 330 330 330 330 329 328 328 327 326 325 325
339 337 337 338 338 337 337 337 339 336 337 337 338 338 339 338 338 338 334 336 337 334 334 334 331 331 334 336 334 336 337 335 334 326 323 321 324 332 333 330 334 334 332 332 332 333 334 337 337 335 336 334 335 334 337 336 338 337 335 327 326 325 323 323 321 322 330 332 333 332 332 333 331 330 330 330 329 329 328 328 327 326 325 325 324
338 338 337 338 337 338 337 337 338 336 335 339 337 340 340 337 337 333 331 336 336 335 334 333 334 332 332 333 333 332 331 334 334 332 325 322 319 322 325 331 333 332 333 333 332 334 334 335 334 333 333 333 334 333 333 336 335 336 332 325 326 324 323 321 318 319 320 329 331 332 331 331 331 332 331 330 329 328 327 326 326 325 324 324 325
337 337 337 337 338 338 338 338 337 338 338 336 337 339 340 337 340 340 340 338 338 336 337 334 335 336 334 332 329 332 327 327 330 329 329 328 321 322 328 324 323 328 331 331 334 335 334 334 332 332 332 332 333 333 333 335 335 336 330 325 326 326 324 320 314 315 316 324 328 330 332 332 331 332 331 330 329 327 326 326 325 325 324 324 324
339 337 339 337 337 338 339 339 339 337 337 338 337 338 339 340 340 342 342 341 338 337 336 337 337 332 332 333 332 331 328 326 327 328 328 326 324 323 323 326 329 325 329 330 331 332 332 333 331 330 330 330 330 332 333 333 331 327 324 325 325 327 322 317 315 313 316 326 329 331 331 332 332 332 331 329 327 327 326 325 324 324 324 323 323
334 335 337 339 339 339 339 338 339 340 340 337 336 337 339 340 340 339 339 340 340 339 337 336 336 332 335 335 335 332 332 331 330 328 328 327 326 324 323 324 324 325 326 328 329 328 328 329 329 328 329 328 330 331 332 332 330 320 328 323 325 323 323 321 317 317 314 323 327 331 332 332 332 332 330 328 327 325 324 323 323 323 322 322 322
334 331 336 336 338 340 338 337 338 340 340 337 337 338 336 338 339 338 337 338 339 338 337 333 332 335 336 338 337 332 331 335 333 328 330 330 328 325 325 326 324 325 326 327 325 327 328 327 328 327 328 329 329 330 331 331 331 324 326 322 319 319 320 323 321 317 316 318 323 328 330 330 329 328 328 327 326 324 324 323 322 319 320 322 321
334 333 336 336 336 336 337 337 339 339 340 334 335 335 336 335 335 335 337 338 338 334 338 339 338 338 339 336 336 333 333 334 332 334 331 330 327 327 327 326 325 322 325 326 327 324 325 327 327 327 327 327 328 329 330 330 331 321 322 329 322 318 316 318 322 319 314 311 310 313 318 323 326 327 326 328 324 319 317 316 314 314 313 316 320
334 335 336 336 335 336 336 336 338 340 339 334 335 336 336 335 335 336 334 336 334 337 335 334 336 337 336 334 334 336 333 331 333 334 332 332 330 330 328 323 322 323 322 324 325 325 324 326 326 326 327 328 328 328 327 329 326 319 321 333 329 313 315 317 321 319 315 312 311 311 313 315 316 315 315 314 314 317 320 318 315 313 312 314 318
336 335 335 336 336 337 336 335 339 341 336 335 334 334 336 336 336 337 331 331 333 333 335 338 337 337 338 338 333 333 334 333 334 334 332 332 332 333 330 326 322 319 322 322 323 322 326 324 326 327 327 327 327 328 327 325 328 319 323 330 330 325 311 312 315 316 315 314 312 311 312 313 312 312 313 317 319 320 321 319 317 314 313 316 320
336 336 336 336 337 336 335 335 334 338 334 335 339 335 334 338 334 333 330 332 334 333 336 337 338 338 337 335 336 336 337 337 335 335 335 334 333 333 331 330 326 321 318 319 321 321 324 326 322 324 326 327 327 327 325 327 324 327 328 328 328 330 315 312 312 315 314 310 310 311 312 313 314 314 316 320 321 321 319 317 316 314 316 319 318
336 336 337 337 337 337 337 336 336 339 339 338 338 336 337 333 333 334 334 335 334 333 334 336 337 337 337 337 334 335 335 337 336 337 337 336 334 333 331 328 332 325 323 319 320 324 324 328 327 322 325 326 327 326 327 326 318 324 327 326 328 330 309 311 311 312 310 309 308 307 310 311 313 315 318 321 321 319 316 315 314 314 318 319 318
336 335 335 335 337 338 336 335 336 334 337 338 338 338 338 335 334 334 333 333 333 335 335 336 337 336 331 333 335 337 336 336 337 337 338 337 335 334 332 330 329 330 327 323 321 327 328 325 327 327 324 324 323 324 323 322 320 323 326 326 328 314 312 314 309 309 310 310 307 310 315 314 312 314 318 321 320 318 316 317 317 317 319 319 315
336 335 334 334 336 337 337 335 332 335 337 335 337 336 336 332 331 332 334 335 334 333 333 331 333 334 335 334 331 334 336 336 336 336 336 336 336 332 331 331 332 333 328 324 321 323 328 327 326 326 325 325 322 321 321 318 319 313 321 322 325 315 321 324 309 308 309 309 309 315 320 318 316 317 319 320 320 318 318 318 318 318 318 314 311
335 334 333 333 335 335 335 334 334 333 331 334 335 335 336 337 334 334 335 335 332 335 334 332 334 335 335 332 332 334 336 335 334 335 334 335 335 334 333 331 330 332 329 327 323 324 327 330 328 323 325 325 320 322 319 317 315 316 316 321 318 318 321 321 321 307 307 307 308 310 312 311 315 320 318 315 318 317 315 314 313 312 315 312 308
334 333 333 333 335 336 336 336 334 334 333 334 334 334 334 335 336 337 337 334 332 332 335 332 335 334 335 332 331 333 334 334 334 332 333 333 332 331 331 329 334 332 332 326 323 324 323 326 324 324 322 323 318 321 321 318 315 314 312 317 316 317 317 320 319 321 305 308 307 308 309 309 309 313 311 308 310 311 310 310 310 309 311 307 304
335 334 334 334 335 336 336 335 335 334 334 334 334 332 334 335 335 336 336 334 330 331 332 332 332 333 334 333 333 333 334 333 334 333 333 333 331 328 329 329 326 328 329 328 325 322 321 321 323 320 321 320 322 318 320 318 316 313 311 313 313 313 315 317 317 318 305 305 305 307 307 307 308 308 308 308 307 307 307 307 308 307 306 305 302
333 335 335 335 335 334 336 335 334 334 334 334 333 333 333 334 335 335 334 332 329 331 331 332 331 333 335 333 333 334 334 333 333 333 333 333 331 328 327 327 328 328 331 331 329 323 321 319 321 318 320 319 320 320 320 319 315 312 312 312 313 313 314 315 316 315 307 304 304 306 307 307 307 307 306 306 307 306 306 307 306 306 305 305 303
334 334 334 335 335 335 334 334 334 333 333 333 332 332 334 335 336 336 335 331 331 334 333 333 334 334 334 334 333 334 334 333 334 333 332 334 330 329 327 328 328 330 331 330 328 325 322 319 320 321 321 320 319 319 319 316 314 312 311 313 313 314 315 316 316 313 305 304 305 305 305 306 306 305 306 306 305 305 305 305 305 305 304 305 304
333 333 333 334 334 335 334 333 334 334 334 331 331 332 332 332 333 333 332 330 329 329 334 335 334 335 335 334 334 334 334 333 333 333 334 333 330 330 329 328 328 330 331 330 329 325 323 320 320 319 321 319 318 318 318 318 315 311 310 312 313 314 315 317 317 315 314 310 311 310 305 304 304 304 305 305 305 304 304 304 304 304 304 304 304
332 333 333 333 334 335 333 332 331 332 333 335 331 330 331 332 332 331 332 332 333 334 336 335 335 335 335 334 335 335 334 334 334 334 334 333 332 331 331 331 330 330 330 328 326 324 323 322 319 320 319 320 320 317 317 319 317 314 312 311 311 313 316 317 317 317 318 316 312 308 310 309 307 308 306 305 305 304 304 303 303 304 304 303 303
332 329 331 334 332 331 332 334 332 334 334 330 330 330 331 332 332 331 333 336 334 335 337 336 336 336 335 335 335 335 334 334 336 336 335 333 333 333 333 333 331 330 329 327 326 325 323 323 320 318 319 319 319 321 318 318 317 315 314 314 313 313 315 317 318 318 318 318 318 317 310 308 307 306 304 304 304 304 304 304 304 305 304 303 302
329 329 331 330 333 332 331 332 333 334 334 332 330 330 330 330 328 334 335 334 335 336 336 335 336 335 334 334 335 334 331 321 311 316 319 320 334 332 332 333 331 330 329 328 326 324 324 323 321 322 319 318 318 318 317 316 316 316 318 317 316 317 317 318 318 318 318 318 319 317 317 318 315 316 315 314 314 308 307 305 308 306 304 303 302
330 330 328 331 328 330 330 330 332 333 332 332 327 318 319 330 333 335 335 336 336 336 335 335 336 336 335 336 327 316 313 311 306 301 301 303 306 325 333 334 331 330 328 327 325 324 324 321 321 320 319 318 317 319 319 320 321 322 320 319 316 316 317 317 318 320 319 318 316 316 317 319 319 319 319 319 320 317 319 316 314 312 308 302 302
326 326 327 325 326 327 328 328 330 332 332 330 312 308 311 315 327 332 333 335 335 335 335 335 334 335 334 331 328 319 318 314 310 297 297 297 297 298 297 301 310 336 332 327 326 326 323 322 323 322 320 320 321 323 322 322 322 321 319 320 319 317 315 313 312 316 320 319 318 317 318 322 322 319 321 321 321 323 323 314 302 304 303 302 301
326 326 327 325 325 326 327 328 328 329 332 314 304 303 306 310 317 330 331 332 334 333 333 333 333 332 330 330 330 329 329 327 324 318 306 297 296 296 296 296 295 294 297 324 329 327 326 323 323 323 323 323 323 322 320 321 320 320 320 320 319 317 316 316 317 316 319 320 318 318 320 324 322 321 321 322 323 323 310 304 301 300 300 300 301
326 325 326 325 323 324 324 323 326 327 324 299 301 301 303 306 310 320 328 329 329 330 331 330 331 331 330 329 330 329 323 318 322 323 320 314 300 299 300 301 301 300 298 296 299 326 328 325 324 322 322 323 321 321 323 322 323 321 320 318 320 320 321 319 318 319 321 325 322 321 319 321 321 321 319 323 322 321 313 303 300 300 299 299 299
322 321 322 321 321 322 323 323 323 321 317 299 298 299 302 303 306 312 328 329 329 329 329 330 332 332 331 330 328 326 325 326 325 324 322 321 322 324 325 324 323 316 306 305 306 307 318 327 325 325 325 328 325 325 324 325 324 323 322 321 323 322 322 321 324 323 323 322 321 319 316 320 320 320 318 321 320 319 314 304 300 300 300 299 299
317 318 317 317 317 318 320 321 318 315 308 294 297 297 299 301 304 311 330 330 329 330 330 332 331 331 330 329 328 326 327 327 327 324 326 327 328 328 327 325 323 319 315 313 313 320 327 327 327 327 326 326 325 324 324 325 326 327 327 326 326 325 325 325 323 322 320 319 321 319 314 318 319 317 317 318 318 317 312 302 301 301 300 299 298
315 316 316 316 316 316 318 318 316 312 307 293 296 297 298 301 304 329 332 332 331 330 329 331 330 330 328 328 328 328 328 328 311 306 318 328 327 326 324 323 321 317 310 298 294 297 309 316 316 314 311 306 300 310 308 317 326 326 323 325 326 323 322 319 315 316 314 317 317 315 313 313 317 314 313 316 316 314 315 315 300 302 301 299 299
312 312 312 314 315 316 317 318 316 312 307 296 295 297 300 300 312 330 331 329 329 328 327 327 328 327 325 327 329 328 328 326 303 303 307 314 326 325 324 323 321 319 315 312 298 294 293 293 292 292 293 293 295 295 296 295 307 315 323 320 317 317 315 313 313 313 313 314 314 315 313 309 313 312 310 312 314 312 311 312 313 302 301 300 299
308 309 311 311 312 312 312 314 314 311 310 300 294 295 297 294 308 330 329 328 327 326 324 323 321 319 313 302 318 326 324 322 296 301 300 318 326 325 324 322 320 318 317 315 312 305 294 294 293 293 294 295 297 298 297 298 299 309 320 315 317 315 313 312 309 310 314 312 310 313 311 309 311 312 309 310 312 312 311 310 310 309 303 300 295
308 309 310 309 309 310 312 313 310 313 312 306 295 295 295 296 316 330 327 325 322 321 321 320 320 319 316 307 299 306 313 303 292 295 296 311 326 324 323 321 317 316 316 315 314 315 316 316 316 317 312 307 316 315 311 299 302 309 320 318 317 313 310 310 309 309 308 308 309 313 310 308 308 308 308 306 305 308 311 309 309 309 309 309 309
Wind_Speed
7 7 7 7 7 7 7 7 7 7 7 6 6 6 6 6 6 7 6 6 6 5 5 4 3 4 4 5 4 5 5 4 4 3 5 5 6 8 7 7 5 5 5 6 7 7 7 7 8 8 7 7 8 8 7 7 7 8 8 9 8 7 9 10 10 10 11 12 11 11 12 12 13 13 12 13 14 15 14 15 16 16 17 17 18
7 6 6 6 5 6 7 7 7 6 6 6 5 5 6 6 6 7 7 6 6 5 4 4 4 3 4 5 4 5 4 4 3 4 4 4 6 7 7 6 5 3 5 5 7 8 8 6 4 6 8 7 7 7 6 8 7 7 7 8 9 9 8 8 8 9 9 10 11 9 11 12 13 15 14 13 14 15 15 16 16 16 17 17 17
0 2 4 3 5 6 6 6 7 7 7 6 5 5 5 6 6 6 6 6 6 6 5 5 4 4 4 5 4 4 4 3 3 4 3 4 4 6 8 6 5 5 5 4 6 5 5 6 6 7 6 6 6 6 8 7 7 6 6 7 7 7 8 8 8 6 8 9 10 9 10 11 13 14 14 15 15 16 16 16 15 16 16 16 15
4 2 3 3 7 6 5 6 6 6 7 7 6 6 5 6 6 6 6 5 5 6 5 5 4 4 4 5 4 4 4 4 4 4 3 3 3 5 5 7 6 6 5 5 4 4 5 5 5 6 7 6 6 6 7 7 6 7 7 7 7 8 9 8 8 8 9 9 10 10 10 11 11 13 14 15 15 15 15 15 14 14 14 15 14
5 5 4 8 5 5 5 6 5 5 6 8 7 6 6 5 6 6 6 6 6 5 5 5 4 4 3 4 3 4 4 3 3 3 3 3 2 2 4 5 7 7 6 7 7 6 5 5 5 5 5 5 5 5 7 6 7 6 7 7 7 8 8 8 7 8 8 8 9 9 10 10 10 11 12 13 14 14 14 14 14 14 14 14 14
6 4 5 4 4 4 4 5 5 6 6 7 7 7 7 7 7 7 6 6 6 6 5 5 4 4 4 4 4 4 4 4 3 3 3 3 3 2 3 4 5 5 6 7 7 7 5 4 4 5 6 5 6 6 7 6 7 6 6 6 7 6 7 8 8 8 9 9 10 11 11 10 10 11 11 11 13 14 14 13 13 13 14 14 14
4 2 4 1 2 2 3 3 5 5 5 7 7 7 7 8 7 8 7 6 6 6 5 5 5 5 4 4 4 4 3 3 3 4 3 3 3 3 1 2 2 2 3 6 8 7 6 4 4 6 5 6 5 6 6 5 6 6 7 6 6 7 7 7 7 8 8 9 9 10 11 10 10 10 10 10 11 12 13 13 12 12 13 13 13
3 4 3 3 3 4 3 3 3 4 5 6 7 7 6 7 8 8 8 8 7 6 5 5 4 4 4 3 4 4 4 3 3 3 4 3 3 3 3 2 2 3 2 3 3 7 8 6 5 5 4 2 4 7 5 6 6 7 7 5 6 7 6 8 7 8 8 9 9 10 10 10 11 11 11 11 11 12 12 12 12 13 12 11 11
4 2 3 7 6 5 3 3 2 4 4 5 7 6 7 6 7 6 6 7 8 7 5 5 4 4 4 4 3 3 3 3 3 3 3 3 3 3 2 2 3 2 2 2 4 5 8 7 7 6 4 4 5 5 4 6 7 7 6 6 7 7 7 7 7 8 8 9 9 10 10 10 11 12 11 11 11 11 11 11 12 13 12 11 12
5 5 5 5 4 4 4 4 4 6 5 5 6 7 8 7 7 7 9 7 7 6 6 5 4 5 5 5 4 4 3 3 2 2 3 3 3 2 2 3 3 2 2 2 2 4 6 7 6 5 6 5 4 5 4 5 7 7 7 6 7 7 7 7 7 8 8 9 9 10 9 10 10 11 12 12 11 11 11 12 13 13 13 13 13
6 7 6 5 4 4 5 6 5 4 4 5 6 7 7 8 8 8 7 7 7 7 6 6 6 6 6 6 5 4 3 3 2 2 3 2 3 2 2 3 3 3 3 3 3 4 4 5 6 5 5 9 6 4 5 6 6 7 7 7 7 8 7 6 8 7 8 8 9 9 9 9 9 10 11 13 12 12 12 12 12 12 11 10 10
8 8 8 6 5 5 5 6 6 5 2 6 6 7 8 9 10 9 8 7 7 7 6 7 7 7 7 6 5 4 3 4 3 3 3 3 3 3 4 3 4 4 3 3 3 3 3 4 4 4 5 5 7 6 5 4 4 4 8 7 7 8 8 7 7 7 7 8 8 8 8 10 10 10 11 12 12 12 12 12 11 11 10 9 9
6 6 7 7 6 6 8 7 6 7 7 8 7 6 7 8 8 7 9 9 8 7 8 7 7 7 6 7 4 5 4 4 4 4 3 4 4 4 2 3 2 3 3 2 3 3 3 4 2 7 2 3 5 7 5 5 5 4 4 6 7 9 6 7 7 7 8 8 8 8 9 9 9 9 10 11 11 10 11 11 10 9 9 8 8
6 7 8 7 6 7 6 7 7 6 6 6 5 5 7 8 8 8 8 8 8 8 9 8 5 8 7 6 5 3 3 4 5 5 5 4 4 3 4 3 3 3 3 3 3 3 2 2 3 3 6 6 6 4 3 4 5 3 7 3 9 8 7 7 8 8 8 8 8 8 7 7 8 8 9 10 10 10 9 9 8 7 7 7 8
7 8 7 7 7 6 6 5 7 6 5 5 6 6 5 7 9 8 8 7 6 8 8 10 7 6 4 6 5 5 3 4 5 5 5 4 5 5 5 6 6 5 3 2 3 3 1 1 1 3 2 1 1 4 6 7 6 6 0 2 3 2 8 8 8 9 8 8 8 7 7 7 6 7 8 9 9 9 9 8 7 8 7 7 7
7 7 6 6 7 6 5 7 6 6 6 7 7 8 8 7 7 6 6 8 7 6 6 5 7 9 10 6 5 5 6 8 8 5 5 6 5 6 6 5 6 6 4 3 1 3 2 4 2 1 1 1 1 1 1 6 10 10 5 2 1 3 5 8 9 9 8 8 8 8 6 6 6 7 7 6 6 6 7 7 6 6 7 9 10
7 7 7 7 5 7 8 7 7 7 6 7 7 9 9 9 9 7 6 5 8 8 9 11 8 3 1 5 4 6 7 3 6 5 4 6 6 2 2 5 6 6 3 2 4 1 2 3 1 2 1 1 1 1 1 4 7 6 7 7 1 4 2 10 8 9 9 9 9 8 7 7 8 7 6 5 5 6 6 7 8 9 10 11 11
7 8 7 6 7 7 8 8 8 6 6 7 8 8 10 10 10 8 10 11 7 8 8 6 5 3 5 5 1 2 2 7 8 5 7 5 3 4 5 5 4 4 4 5 5 6 6 7 6 3 2 1 1 1 0 2 2 5 4 6 5 4 5 2 8 9 10 10 9 9 8 8 9 7 6 6 8 10 11 12 11 10 10 10 10
7 7 8 8 8 7 8 9 9 7 6 7 8 9 9 10 10 9 9 9 11 8 9 8 6 9 8 7 5 5 7 5 6 5 5 6 4 4 4 5 5 6 4 6 5 4 2 3 2 2 2 2 2 1 1 2 3 7 10 9 8 7 7 7 5 2 8 9 10 10 10 9 8 7 8 10 12 12 11 10 10 9 9 9 9
7 8 8 8 7 8 10 9 8 9 6 8 8 8 7 6 9 7 4 10 10 8 8 8 9 8 8 7 5 4 2 3 5 3 4 6 7 6 5 8 4 2 6 4 5 5 4 2 2 3 2 1 1 0 1 2 2 5 6 8 9 8 9 7 9 10 7 5 8 9 8 9 9 8 9 11 11 11 10 10 9 9 8 8 8
8 8 8 9 7 9 9 9 9 10 10 8 9 9 10 9 9 9 14 10 9 8 7 8 9 7 9 7 4 6 6 3 3 4 5 5 7 8 7 6 5 6 3 1 4 3 3 3 2 1 1 1 0 1 1 1 2 3 8 9 8 8 8 8 10 10 10 6 4 5 9 9 11 11 12 12 11 10 10 10 10 9 9 8 9
7 8 8 9 9 9 9 10 10 8 8 9 11 10 10 11 10 10 10 9 8 7 8 7 8 7 7 5 8 4 4 7 5 5 3 4 5 8 6 8 7 4 5 4 4 4 4 3 2 1 1 1 1 2 1 0 2 2 8 8 7 7 7 6 7 8 8 7 6 6 8 10 10 12 13 12 11 10 10 10 11 10 9 9 9
5 6 8 9 10 10 9 9 9 8 8 5 7 9 9 9 9 10 10 11 9 9 8 8 4 1 6 7 5 5 5 6 6 5 5 4 4 7 8 7 7 8 5 4 5 4 3 3 3 2 2 1 2 2 2 2 4 7 7 6 7 6 7 6 4 6 6 5 6 6 9 11 12 14 13 11 10 10 9 9 9 9 9 9 9
5 5 6 7 8 8 8 9 9 8 7 6 4 7 7 8 8 9 9 11 9 9 9 7 7 9 10 8 7 0 5 2 4 4 5 4 4 5 7 9 7 6 6 5 3 3 3 3 3 4 2 3 3 2 2 4 6 4 3 7 4 6 6 6 6 5 4 3 2 6 12 14 14 13 11 9 8 7 8 9 9 9 9 9 9
5 5 6 9 8 7 8 8 9 9 7 5 5 7 8 8 9 9 9 10 10 8 5 7 10 11 9 6 6 6 6 3 6 4 3 4 3 5 5 5 5 6 6 6 5 4 3 3 3 4 4 4 4 4 5 5 4 6 2 7 6 7 6 6 6 5 5 5 4 9 11 12 10 9 8 8 8 8 10 9 6 4 4 6 7
7 7 8 10 10 10 10 11 10 9 9 8 8 10 10 11 10 11 8 6 6 11 10 10 10 9 5 3 5 7 6 8 5 2 4 5 5 5 5 5 5 5 5 5 6 6 5 4 3 4 5 4 4 5 5 7 6 4 2 8 6 6 5 6 6 6 6 6 7 8 9 8 9 8 9 10 12 12 11 9 6 4 3 3 5
10 8 10 10 12 10 11 11 10 9 8 8 10 9 12 11 11 10 6 5 7 6 6 10 9 9 8 9 7 7 7 7 5 5 5 5 5 5 6 7 6 5 5 5 6 6 6 6 5 5 5 5 4 4 4 5 7 5 4 9 7 5 6 7 6 6 6 7 8 9 10 11 11 11 10 10 10 10 8 8 5 5 5 6 6
9 9 10 11 11 10 7 8 8 8 8 9 10 11 9 9 7 5 3 4 10 11 9 9 8 9 8 6 5 7 6 6 6 5 5 5 4 6 6 7 7 7 6 5 6 5 6 6 6 5 6 6 5 4 6 8 6 5 8 7 6 6 5 6 6 6 6 6 7 8 9 10 11 11 10 10 9 8 6 6 6 5 6 6 5
9 10 11 12 12 10 10 9 11 10 12 12 10 5 11 5 4 10 10 13 10 10 8 7 8 7 5 9 2 6 7 6 5 6 5 5 5 6 6 5 5 6 6 6 6 6 8 7 6 6 4 6 5 6 7 6 8 7 5 6 6 6 5 5 6 6 6 7 7 8 8 9 10 10 10 8 8 7 7 7 6 6 5 5 6
9 8 10 10 11 11 9 7 7 6 6 6 8 11 8 7 8 5 7 5 5 6 7 8 7 8 4 4 6 7 7 6 6 5 6 6 5 6 6 5 3 5 6 6 6 6 6 7 6 7 6 7 6 6 4 6 8 7 5 5 6 6 7 5 5 6 6 6 7 8 8 9 9 9 9 9 9 8 8 7 7 6 6 7 7
9 10 10 11 11 9 7 5 6 6 6 5 6 7 6 3 3 5 8 9 9 8 4 6 7 5 8 11 9 9 6 6 7 6 6 6 6 6 5 4 4 2 5 4 6 5 4 7 4 7 8 8 6 6 4 5 7 5 3 5 5 12 8 5 4 5 5 6 6 7 7 8 9 9 9 9 8 7 7 7 7 6 8 7 7
10 10 10 11 11 9 9 6 6 6 5 7 6 6 5 6 4 5 7 8 7 5 8 7 8 7 9 6 4 4 7 7 7 7 7 6 6 6 5 4 6 4 2 3 4 6 5 6 6 6 8 7 7 7 6 5 6 6 5 4 10 10 7 6 6 4 5 5 6 6 8 8 7 8 8 7 8 8 8 8 8 8 7 8 8
10 10 10 11 12 11 10 9 8 7 5 5 6 5 6 6 8 10 8 9 9 7 5 5 7 9 7 9 9 7 7 8 7 7 7 8 7 6 6 6 7 5 4 4 6 7 5 3 6 6 7 7 7 6 7 6 7 5 4 6 7 6 6 6 7 7 6 6 5 5 6 7 7 8 8 7 8 8 8 8 8 9 7 9 9
11 11 11 10 11 12 10 11 11 9 10 10 8 7 6 7 7 4 6 9 9 9 8 11 8 6 7 7 9 7 8 9 7 9 8 8 8 8 7 7 5 6 5 5 5 8 8 5 5 6 6 6 6 6 6 6 6 7 7 6 6 7 5 6 7 7 9 7 6 6 6 7 7 6 8 7 7 8 8 9 9 9 8 10 10
9 10 10 11 12 12 11 10 10 11 12 11 10 9 8 8 9 8 6 5 1 5 7 8 9 8 8 8 8 8 7 9 7 7 7 8 8 8 8 7 7 7 7 4 5 7 9 7 6 6 6 5 4 7 7 6 6 7 7 7 7 6 4 5 5 7 11 9 8 7 7 8 7 6 6 8 7 8 9 9 9 9 9 10 10
9 10 11 11 10 12 12 11 11 11 12 10 10 9 9 9 9 9 9 6 6 8 9 10 10 9 9 10 9 8 8 8 8 7 6 7 7 6 7 6 6 7 6 5 5 7 8 8 7 7 6 6 4 5 5 6 6 6 6 7 6 6 6 6 4 6 11 11 10 8 7 7 7 7 7 7 8 9 9 9 10 10 10 10 11
9 9 11 11 11 12 12 12 12 11 12 11 11 10 10 9 9 8 7 8 8 8 10 9 9 10 10 10 10 10 9 8 8 7 8 9 9 7 7 8 7 7 6 6 6 6 8 8 7 4 7 6 5 4 5 6 6 6 5 5 6 6 6 4 4 7 11 10 9 8 8 8 8 8 8 8 9 10 10 10 10 10 11 11 12
10 9 10 10 10 11 12 13 12 10 10 10 7 8 9 9 9 8 8 5 7 11 8 8 9 9 9 9 9 10 9 9 8 8 8 10 8 8 8 8 8 8 7 7 6 7 7 8 8 6 5 5 5 4 5 5 5 6 6 6 6 5 5 5 4 4 6 6 6 7 6 7 10 10 10 10 10 10 10 11 11 12 12 12 13
10 8 7 10 9 8 7 4 9 12 11 9 8 7 8 8 9 8 5 11 12 8 8 8 9 9 9 9 8 9 9 9 9 9 9 9 7 8 8 7 7 9 7 7 7 7 7 7 7 7 6 5 5 5 6 5 4 5 6 6 6 6 5 6 6 5 5 5 6 5 5 4 4 9 13 13 12 13 13 13 13 13 13 13 12
8 10 11 9 9 9 9 7 4 3 7 9 7 6 5 4 3 8 11 10 8 8 8 8 8 8 9 9 8 8 10 9 7 9 9 9 7 8 7 6 6 8 8 7 7 7 7 7 7 7 6 6 5 4 5 5 5 5 5 5 6 6 6 6 7 6 6 6 6 7 8 8 7 7 8 13 14 15 14 12 13 12 12 12 12
7 10 8 10 8 7 7 6 6 5 6 7 6 7 10 8 11 12 10 10 9 9 9 9 8 8 8 8 8 5 10 8 9 6 7 7 3 8 7 7 8 8 7 7 7 7 7 7 6 6 6 6 6 6 6 6 6 5 5 4 4 4 5 6 7 7 6 6 6 6 6 7 6 7 8 8 9 14 12 14 11 13 14 12 13
4 3 4 3 5 4 6 8 7 6 7 5 6 8 11 12 11 8 9 9 9 9 9 9 9 8 8 6 8 10 11 10 9 9 9 8 8 4 4 7 8 6 6 6 7 6 6 6 6 6 6 6 6 6 6 5 4 3 3 4 5 5 4 5 3 4 3 4 5 6 6 5 5 5 6 6 5 8 4 8 8 8 10 15 15
4 5 5 4 3 3 4 3 4 5 5 5 8 2 3 4 9 8 9 9 9 9 9 9 9 9 7 7 7 8 9 9 9 10 9 10 10 10 12 12 10 3 5 7 5 5 6 6 5 6 6 5 5 5 5 5 4 4 4 5 5 5 5 6 6 4 1 2 4 5 6 3 4 4 4 3 2 4 1 10 13 6 8 4 9
3 3 4 3 3 2 2 3 2 4 4 8 11 8 6 7 5 8 8 8 8 8 9 9 8 8 8 7 6 6 5 7 8 8 10 10 11 12 12 12 11 11 10 5 2 5 4 4 4 4 3 4 4 4 4 3 4 4 4 4 4 4 5 5 6 4 5 4 4 6 6 4 2 1 3 0 1 5 11 13 14 11 10 8 7
3 4 4 4 4 3 2 2 1 2 3 4 10 8 7 6 5 7 8 8 8 8 8 9 8 8 9 8 7 5 7 10 9 9 9 9 11 14 14 13 13 13 12 11 11 8 1 2 3 4 2 3 4 3 2 1 0 3 4 5 4 4 3 4 5 2 4 1 4 5 6 5 3 1 2 1 2 3 8 10 11 12 11 11 10
5 4 5 5 4 3 3 3 3 1 3 3 6 8 6 5 5 6 6 7 6 8 8 8 7 8 9 9 8 7 8 8 9 10 10 11 10 9 9 9 9 9 9 9 8 8 7 1 2 4 4 1 4 5 4 1 2 2 3 3 2 3 3 1 3 4 4 2 3 5 5 4 2 1 3 2 2 6 7 9 10 8 9 9 10
5 4 5 6 5 5 4 4 2 2 3 5 4 6 7 5 3 5 6 5 6 7 7 7 7 8 9 8 9 10 9 9 8 9 11 9 9 8 9 9 9 9 9 8 8 6 5 6 6 7 7 6 4 3 2 1 0 2 3 2 1 2 1 2 2 5 4 5 5 4 5 2 3 3 3 3 3 2 8 9 11 9 7 7 9
4 4 6 7 6 6 4 4 4 4 6 9 3 5 6 6 6 6 7 7 7 7 7 7 8 7 8 9 9 10 9 8 8 4 5 9 9 9 10 10 9 9 9 8 9 10 10 9 8 8 7 7 8 7 7 6 1 2 2 2 3 3 4 5 6 5 4 3 5 5 4 4 3 4 4 4 2 3 2 4 12 13 7 6 9
5 5 6 8 7 5 6 7 6 6 7 9 7 7 2 3 6 6 7 7 8 8 8 8 8 7 7 3 7 8 9 8 5 5 4 6 9 9 9 9 8 8 8 7 11 13 14 15 14 12 11 11 11 11 11 11 8 7 3 2 3 2 6 6 5 8 4 3 4 4 5 4 1 4 5 4 2 5 4 4 4 10 5 5 9
6 7 7 8 8 9 9 10 7 7 8 8 10 9 7 9 9 5 6 7 7 8 9 8 7 8 10 17 11 7 8 7 6 5 6 4 8 8 9 9 9 8 7 6 6 6 10 12 11 10 10 11 12 12 12 11 12 9 3 3 4 1 4 2 5 2 6 5 5 5 5 3 2 2 3 4 2 5 2 4 5 5 3 11 13
7 5 6 8 8 8 9 9 10 9 8 8 12 11 11 11 7 4 6 8 7 6 8 9 8 7 9 11 16 12 9 8 9 9 10 6 8 6 8 8 8 8 7 7 6 7 6 7 6 6 6 5 5 7 8 10 11 9 6 4 1 2 2 2 1 2 5 5 4 6 5 2 2 1 3 4 4 0 1 3 5 6 7 8 5
Wind_Direction
186 185 186 190 188 183 178 180 182 177 166 169 171 184 199 179 185 184 179 171 165 163 162 149 159 155 138 132 127 108 106 116 122 115 103 119 121 115 112 100 98 93 110 94 100 106 109 101 99 100 94 92 87 90 92 93 90 79 75 71 68 71 78 71 72 75 74 70 68 71 73 72 70 71 70 71 72 71 73 74 73 71 68 68 68
189 186 186 186 190 190 189 178 182 172 176 160 174 186 194 180 185 181 180 175 174 157 161 165 174 157 152 122 126 115 125 121 132 110 103 111 115 119 117 113 112 89 37 102 105 112 111 106 116 100 103 107 104 101 91 97 86 80 76 77 76 74 73 74 68 71 77 72 70 73 75 74 72 71 71 74 74 74 75 73 74 75 74 71 70
237 215 194 182 197 190 188 177 184 176 179 161 173 190 191 179 184 183 180 186 171 158 184 169 174 173 145 134 130 134 124 111 109 111 127 123 130 127 119 113 87 58 51 36 112 117 105 92 91 97 107 100 108 99 100 86 78 80 84 75 72 80 78 70 68 74 76 72 71 78 83 79 75 71 72 73 74 75 74 76 76 75 74 73 72
203 223 223 185 224 195 187 188 186 180 179 171 172 186 189 176 185 189 181 188 171 173 177 177 181 166 169 135 140 136 123 132 135 127 118 122 121 140 149 128 98 61 82 84 103 120 115 123 111 107 109 111 104 98 84 85 93 88 83 81 81 80 73 73 74 74 74 72 79 77 81 79 81 78 75 74 74 74 74 75 75 75 75 74 72
212 229 219 217 205 196 200 197 185 185 182 178 177 180 185 173 188 189 187 188 183 178 182 178 181 168 159 138 144 120 123 140 130 136 134 141 130 146 146 145 134 127 99 101 73 59 91 108 110 122 102 108 104 98 105 104 95 96 85 82 80 83 88 77 81 86 84 86 83 85 80 77 83 81 79 79 79 77 78 77 76 75 75 75 75
202 203 232 230 202 202 203 201 191 181 181 177 186 186 187 187 187 191 193 195 188 179 187 180 173 170 152 148 141 133 152 150 151 135 150 161 140 153 146 148 162 142 144 118 113 101 88 84 59 87 111 119 112 111 115 113 120 109 111 107 106 99 92 90 82 86 87 86 87 87 88 90 92 86 85 84 81 83 82 80 78 79 78 77 78
176 220 206 275 284 220 220 210 185 181 188 190 193 188 188 190 192 197 191 205 197 183 187 180 176 174 149 163 148 156 168 157 155 151 161 142 183 145 136 127 124 137 136 145 126 105 85 96 106 112 120 129 138 125 117 113 110 101 105 103 101 95 93 83 85 89 89 86 86 90 94 97 97 92 90 89 93 89 86 84 80 79 80 80 79
188 224 197 211 210 200 149 240 232 193 202 185 199 189 187 195 194 198 190 199 196 185 184 172 186 155 163 158 155 172 175 159 165 162 159 169 165 143 173 122 142 99 144 125 147 125 114 110 106 128 133 177 109 115 112 125 118 117 109 105 103 97 97 114 103 94 93 92 91 91 90 89 89 90 90 91 86 90 85 83 82 85 88 80 78
221 177 185 214 213 196 197 182 215 220 214 191 195 185 182 194 193 190 208 202 200 186 178 167 166 161 152 161 163 171 185 161 165 169 155 197 138 149 140 132 97 120 171 146 133 146 128 121 116 108 100 78 68 90 115 113 118 122 118 116 109 109 107 100 115 107 97 98 95 96 98 98 94 95 97 101 101 97 90 86 91 94 92 87 88
203 203 224 218 216 206 204 188 184 215 208 203 200 189 184 183 189 186 207 205 206 184 177 157 159 163 162 167 165 179 177 160 160 155 202 169 163 139 119 122 183 155 101 93 112 125 142 129 118 111 93 73 94 119 113 117 123 122 124 131 120 120 126 119 110 107 105 99 105 102 101 101 103 101 96 95 97 96 92 96 98 99 96 94 86
211 218 217 216 215 219 223 199 191 197 218 219 206 203 189 179 186 184 192 204 208 190 178 160 164 165 167 168 165 184 179 144 181 195 212 170 133 152 171 167 188 162 135 155 144 133 137 147 159 155 121 92 73 73 133 139 128 124 133 123 122 122 123 117 114 113 106 110 111 107 100 100 101 100 101 102 102 103 100 99 103 97 93 83 77
216 217 221 206 208 218 227 219 186 171 196 246 214 210 190 176 183 183 182 187 201 192 178 172 167 171 172 163 167 168 156 168 202 194 200 183 176 190 198 161 196 158 159 167 148 131 149 147 166 128 112 111 119 124 114 80 47 111 135 137 128 132 132 131 122 114 123 123 118 117 116 113 110 107 104 104 103 101 100 96 98 98 94 88 82
224 226 233 221 199 225 214 202 182 177 179 219 211 216 190 175 168 171 175 186 181 189 178 174 169 172 163 160 142 175 167 196 191 202 203 194 186 194 209 208 209 156 180 163 194 149 165 171 157 114 137 164 156 137 110 82 82 59 109 145 140 146 137 133 126 133 132 128 124 122 121 115 113 108 107 108 107 101 100 99 97 98 91 83 79
227 230 230 226 213 208 203 196 198 194 190 191 177 187 187 177 169 179 193 188 186 176 184 138 183 187 180 172 171 167 169 196 200 207 214 203 201 199 190 231 219 214 151 175 182 188 162 197 164 111 148 175 172 168 161 155 151 62 25 357 144 151 145 138 134 136 136 134 132 125 126 122 113 111 111 111 111 108 108 110 101 96 98 92 83
223 227 236 222 216 211 203 196 209 188 165 166 170 173 178 167 166 170 183 194 189 185 170 194 194 162 191 156 184 173 147 214 208 216 204 212 208 214 211 209 203 205 193 198 174 190 203 146 216 162 121 166 245 135 145 135 142 134 61 1 95 128 146 148 146 145 143 141 139 134 127 121 116 121 124 119 118 122 120 115 115 102 93 90 90
226 225 226 226 211 208 212 197 206 195 164 167 179 181 184 180 169 161 171 185 184 206 195 225 219 196 195 205 161 176 188 207 202 187 207 208 216 220 207 211 211 204 183 194 178 177 165 267 85 65 85 360 10 130 230 104 129 146 158 131 127 342 155 154 151 150 152 154 155 144 143 139 142 142 126 119 119 129 131 126 116 109 102 102 102
227 224 218 217 208 217 217 202 199 187 179 175 180 191 186 186 183 168 170 193 197 188 196 207 233 249 320 184 159 201 213 165 172 182 190 207 203 175 264 213 194 201 169 177 179 177 131 85 74 212 184 192 164 260 199 132 152 155 158 163 136 19 151 162 153 160 159 164 161 153 162 158 148 128 120 129 143 143 140 131 119 115 110 105 105
220 220 212 206 209 212 211 199 202 187 186 179 191 193 191 187 185 183 181 203 222 193 197 203 222 191 190 228 58 307 274 143 186 178 183 188 171 198 180 206 164 149 183 189 202 167 167 155 182 173 137 175 201 200 326 88 98 143 173 142 102 79 54 43 162 163 167 170 170 168 166 155 136 129 131 131 133 135 133 125 116 113 113 107 102
216 212 216 214 209 205 207 204 198 184 188 183 192 193 193 192 179 197 194 198 208 200 194 187 195 212 216 215 202 190 210 181 198 148 179 143 190 189 197 220 160 179 200 220 169 142 119 134 140 142 158 176 168 155 199 110 96 78 96 104 105 93 84 76 66 139 170 174 174 174 176 169 151 140 131 125 124 123 120 121 119 115 118 118 117
212 207 211 218 209 209 212 209 198 187 192 196 193 194 194 185 197 155 204 227 193 199 192 189 193 196 212 213 218 222 261 230 314 261 187 183 176 173 178 182 159 170 218 178 159 135 146 165 142 164 165 146 96 148 6 152 165 142 125 112 110 107 101 97 96 82 88 165 187 179 171 170 162 149 138 131 123 120 119 117 115 115 115 119 121
215 211 213 219 213 215 212 207 207 191 208 196 197 189 191 191 196 166 210 199 190 198 193 191 201 207 189 212 225 203 201 200 222 244 243 171 169 173 178 149 159 161 159 224 104 120 137 131 99 69 100 94 34 19 341 285 147 129 124 121 120 118 117 117 114 109 106 107 112 165 156 181 170 150 141 132 124 120 121 121 120 120 121 122 125
216 212 209 216 219 220 216 214 213 204 197 191 197 191 197 197 196 194 196 193 189 195 198 201 190 214 179 191 204 223 190 206 189 205 231 243 167 175 154 165 171 164 150 147 131 146 146 123 147 183 116 132 167 138 52 148 101 132 115 121 124 132 130 126 123 130 131 136 151 175 177 182 158 143 137 132 123 120 123 125 124 126 125 121 121
234 230 222 218 218 221 222 220 214 198 199 193 180 195 195 198 198 201 199 200 199 191 197 207 152 253 211 199 203 203 217 213 184 193 204 190 205 144 161 169 170 154 152 143 152 153 139 141 159 139 128 117 96 97 148 106 78 69 89 120 138 139 120 112 131 148 167 177 165 187 171 164 148 140 135 130 130 128 124 125 125 124 127 126 123
228 235 235 224 219 220 223 230 224 211 188 176 189 204 188 198 199 204 203 203 207 198 191 201 171 201 210 190 185 235 267 296 316 164 205 173 206 164 176 148 169 145 135 122 129 129 151 168 153 131 137 109 103 103 115 111 75 33 206 95 102 103 116 130 133 141 170 177 202 156 142 145 137 138 141 148 146 142 134 129 129 133 136 136 131
244 222 217 224 224 216 217 221 221 213 178 173 202 178 187 201 199 202 207 202 203 196 193 198 203 213 188 194 123 165 224 188 218 214 210 152 198 177 155 169 152 131 147 154 155 158 153 169 170 138 127 132 145 134 110 107 108 60 93 102 80 109 119 131 134 145 131 137 176 136 138 134 146 153 157 160 163 141 123 113 111 110 123 132 133
215 202 213 213 219 222 218 218 218 212 169 185 196 191 199 199 200 201 204 196 212 208 207 202 193 209 161 165 176 189 205 231 208 187 186 175 182 167 154 154 142 152 145 181 168 165 169 170 170 144 133 140 133 140 137 119 125 119 301 109 99 91 111 104 98 100 101 103 104 94 92 91 93 95 97 98 97 103 111 115 114 100 90 111 133
209 195 205 206 212 216 221 221 218 203 171 194 200 200 200 196 198 194 195 197 212 222 192 211 195 195 192 199 188 172 185 213 179 210 177 188 171 158 170 161 150 155 159 181 171 211 142 156 172 155 143 135 156 145 139 104 81 117 173 129 110 82 99 100 109 110 113 112 107 105 108 109 109 110 110 111 113 116 118 124 112 98 93 88 89
209 203 204 214 213 214 221 235 225 203 176 200 194 195 206 210 194 138 154 217 222 197 213 190 194 195 195 196 158 220 191 190 194 191 186 177 169 162 180 172 166 161 167 175 190 162 159 150 166 166 151 165 155 125 96 127 136 180 238 144 145 123 97 113 119 122 123 125 121 121 122 121 121 123 125 127 126 122 111 116 116 109 106 93 77
210 204 205 211 212 201 208 212 224 207 185 197 190 173 206 203 215 177 187 211 198 196 193 185 191 187 187 215 176 229 179 184 204 172 190 174 186 174 195 179 186 155 174 180 186 160 169 171 163 146 188 142 150 147 177 158 141 209 146 142 143 147 112 123 123 125 128 129 134 136 137 135 132 135 138 138 137 135 128 130 130 130 128 124 108
215 207 207 208 211 207 208 196 220 203 196 196 195 203 161 186 216 184 203 194 176 211 202 187 186 193 191 218 161 253 162 185 183 179 175 184 190 181 207 173 97 227 183 204 154 181 161 187 167 153 172 157 160 162 173 134 131 244 163 149 152 127 113 126 124 123 133 137 142 148 147 147 147 148 151 150 151 150 149 146 148 154 162 158 141
218 206 200 205 205 203 197 197 201 208 218 188 201 221 176 186 177 211 199 195 190 184 178 194 192 167 198 201 188 200 154 184 171 178 170 184 187 189 200 171 163 307 172 246 151 149 166 173 159 143 157 160 167 156 160 137 152 234 157 160 136 112 150 117 128 128 140 145 145 152 154 156 160 160 162 161 158 157 162 168 164 172 184 164 147
217 209 202 202 205 194 193 177 202 210 193 206 200 215 180 188 231 238 210 193 185 182 186 159 227 173 202 166 224 230 158 176 177 174 176 184 187 197 170 184 168 204 180 224 131 140 181 167 147 144 149 157 166 158 158 141 123 251 166 162 109 141 191 149 137 142 141 151 156 166 166 157 165 170 169 169 168 171 177 180 180 186 189 156 163
216 212 208 203 205 200 183 184 179 172 181 196 204 196 209 204 181 207 190 204 191 168 156 189 198 190 178 206 167 198 163 189 174 176 188 176 181 196 180 189 175 177 195 217 154 148 129 137 157 155 145 160 170 172 160 143 155 180 214 146 153 185 187 161 158 151 160 161 169 175 162 167 172 179 174 176 179 184 183 187 188 195 184 169 176
213 212 204 200 208 205 188 181 187 177 187 188 187 195 201 196 198 212 208 193 203 175 183 180 181 195 176 211 184 186 179 195 179 189 180 178 181 185 184 186 147 166 202 203 141 163 152 157 156 139 148 192 166 183 159 164 161 173 177 162 170 198 179 171 159 161 165 168 177 176 173 179 183 195 174 185 191 190 189 193 196 199 191 180 185
214 209 202 200 204 206 194 186 185 183 192 193 184 192 201 197 199 199 195 210 340 225 171 189 178 182 182 198 189 183 185 198 184 209 167 184 190 194 168 197 172 174 181 205 168 155 157 154 156 158 158 179 208 166 170 167 167 177 181 169 181 184 173 190 168 143 162 170 179 179 188 184 191 201 184 193 202 199 200 202 203 206 203 193 196
215 209 204 201 200 204 196 189 185 194 190 183 177 187 196 197 201 195 192 184 198 222 181 187 180 179 183 191 192 185 187 196 188 198 178 184 200 184 179 176 164 170 172 188 176 162 154 152 167 171 158 161 198 160 163 160 165 186 189 174 182 180 174 182 189 153 160 171 175 185 189 192 199 201 201 205 207 209 211 211 211 211 210 205 204
222 212 204 201 203 200 202 195 184 190 195 181 178 182 184 195 197 198 198 183 218 199 177 193 182 179 182 189 189 186 188 192 185 196 186 181 196 180 186 171 178 165 172 183 171 163 156 156 161 141 148 172 172 161 163 172 166 187 194 175 187 189 178 187 201 100 128 164 170 189 195 199 206 208 210 209 212 215 217 219 219 220 218 215 213
224 219 205 203 204 204 200 203 189 194 189 188 187 183 185 186 196 198 194 167 189 222 183 181 173 185 181 186 186 187 185 193 186 194 183 184 191 183 184 177 174 163 175 176 169 166 164 152 157 151 174 161 158 172 172 190 172 177 183 183 194 194 185 194 207 179 175 173 193 186 196 211 211 217 212 212 217 217 222 223 224 225 225 223 220
231 218 221 207 210 200 200 210 221 199 188 152 159 178 187 193 197 195 193 195 200 192 174 182 176 178 183 183 178 184 186 189 185 183 180 183 185 187 178 179 176 159 172 175 166 169 165 162 162 165 166 170 184 171 179 180 186 193 176 182 193 191 198 208 208 201 204 191 196 200 220 236 196 205 201 213 215 219 220 220 223 226 229 227 227
237 227 215 207 193 194 210 185 127 108 117 133 147 176 187 201 209 204 193 194 190 180 179 181 175 177 182 177 177 180 188 187 181 174 174 177 176 181 169 178 163 162 170 168 171 169 172 177 176 168 169 166 175 193 150 178 195 203 199 194 194 188 194 204 221 216 200 204 214 203 208 217 213 220 187 205 217 222 221 225 227 234 233 233 231
236 232 218 210 179 165 150 173 174 149 142 134 147 184 182 172 209 194 178 182 180 174 175 174 171 171 173 170 178 141 68 71 61 25 54 28 200 165 161 167 167 169 168 169 174 178 178 183 176 177 176 178 182 177 180 190 200 201 184 208 231 212 199 192 204 218 224 213 221 239 220 193 225 225 218 221 216 211 220 223 234 222 232 235 236
271 271 217 124 123 157 170 184 188 164 164 153 143 205 168 197 179 171 171 171 174 170 169 163 160 162 157 135 77 78 85 70 65 65 62 73 45 34 169 170 172 169 171 178 177 184 185 181 184 182 188 192 186 186 193 194 196 181 167 199 220 222 237 261 260 191 200 256 262 248 246 204 226 235 228 232 186 168 230 197 219 232 213 220 231
62 41 51 90 138 141 161 164 193 176 157 149 155 226 190 186 176 168 165 166 165 166 162 160 154 146 139 126 114 105 107 94 76 65 67 60 53 56 49 48 38 36 193 185 190 191 195 194 180 186 198 190 177 184 192 177 181 198 207 212 229 238 227 238 232 131 92 289 255 265 267 193 201 256 269 277 147 169 97 55 40 27 336 292 234
92 112 117 145 136 129 129 134 228 220 164 141 161 180 175 163 173 173 165 162 166 164 165 159 155 154 137 130 134 131 135 132 124 104 79 71 80 74 66 56 52 49 42 32 209 184 201 206 177 198 200 191 158 193 182 182 183 191 214 223 231 247 242 239 251 223 125 207 246 249 259 137 184 291 279 280 41 50 61 46 28 9 352 336 307
94 134 122 108 86 78 107 177 202 268 69 115 150 164 172 170 175 187 169 166 172 166 164 164 155 157 148 140 133 121 110 124 132 117 113 103 94 96 94 87 66 56 44 39 29 12 166 186 164 159 196 131 176 153 90 106 74 209 195 218 206 230 233 252 264 137 129 17 258 245 234 183 177 224 280 140 68 91 91 67 41 17 358 353 344
76 72 75 75 71 107 105 119 91 54 73 33 141 139 165 191 196 240 162 166 163 165 160 157 153 151 149 146 137 134 142 147 130 133 126 126 126 127 120 103 97 90 74 49 39 30 5 56 130 118 75 6 85 82 74 83 214 223 234 232 188 227 227 298 66 64 75 328 314 302 328 307 104 7 276 60 37 89 88 102 85 50 12 2 1
32 45 68 74 44 49 64 77 94 69 37 7 142 148 157 188 227 252 153 161 154 147 146 148 145 151 145 144 143 142 146 143 134 141 141 135 128 117 107 94 80 63 44 24 12 0 37 63 76 80 69 52 69 88 91 190 42 13 353 352 6 338 37 116 99 102 78 30 336 300 294 298 45 293 307 316 334 88 133 107 90 76 37 17 19
31 23 53 63 55 48 45 77 82 57 43 17 91 141 158 171 230 181 152 144 136 129 135 142 141 137 142 149 146 144 140 125 48 30 119 131 125 120 109 102 93 78 63 51 32 44 47 51 59 67 66 61 50 48 24 1 343 139 174 190 193 214 228 227 157 137 105 44 17 335 307 285 11 319 315 323 322 310 326 108 99 65 59 39 41
47 33 43 49 45 37 47 50 51 54 41 11 45 60 17 278 230 163 144 137 121 116 113 126 119 78 43 61 139 133 124 109 47 53 92 143 128 124 120 114 108 98 93 76 51 54 68 76 82 84 89 81 70 57 42 25 10 333 296 222 222 264 263 259 171 143 131 106 54 16 300 284 335 312 305 306 318 311 307 2 16 87 105 96 80
59 50 58 58 54 45 43 45 44 62 60 17 37 50 36 353 314 147 139 126 121 114 107 91 86 75 52 26 25 106 105 97 42 24 5 297 144 137 132 129 124 117 111 104 95 75 81 87 88 92 92 91 87 68 45 30 15 341 304 300 38 282 271 269 307 189 124 81 46 348 290 287 343 266 300 299 236 159 335 33 31 345 152 141 109
74 65 56 62 56 52 47 52 42 55 59 33 29 42 34 16 353 137 127 122 107 117 119 104 91 92 71 49 31 40 62 63 46 30 7 314 147 140 136 133 126 131 125 130 122 119 124 122 123 127 122 151 99 73 69 49 29 15 17 9 300 277 292 3 325 305 162 102 42 343 294 339 314 357 314 303 296 135 119 351 340 346 350 350 348